Location: Birdsville
(25.8981°S, 139.3523°E)
Time: 15:07:33
(UTC+10:00)

Envisat - Visible Passes

Search period start: 02 December 2023 00:00
Search period end: 12 December 2023 00:00
Orbit: 762 x 764 km, 98.3° (Epoch: 01 December)

Date Brightness Start Highest point End Pass type
(mag) Time Alt. Az. Time Alt. Az. Time Alt. Az.
02 Dec 5.9 02:16:36 10° ESE 02:17:25 10° ESE 02:18:14 10° ESE visible
02 Dec 2.9 03:54:19 44° NNW 03:55:46 62° W 04:00:51 10° SSW visible
03 Dec 3.7 03:16:38 32° NE 03:18:36 50° ESE 03:23:33 10° S visible
03 Dec 4.7 04:56:48 12° WNW 04:57:43 12° W 04:59:44 10° WSW visible
04 Dec 5.3 02:38:57 14° ENE 02:41:38 20° ESE 02:45:16 10° SSE visible
04 Dec 3.7 04:19:07 29° NW 04:20:17 32° W 04:24:52 10° SW visible
05 Dec 2.9 03:41:25 45° N 03:43:01 86° WNW 03:48:10 10° SSW visible
06 Dec 4.3 03:03:45 25° ENE 03:05:56 36° ESE 03:10:35 10° S visible
06 Dec 4.4 04:43:55 16° WNW 04:44:54 17° W 04:48:13 10° SW visible
07 Dec 5.7 02:26:18 10° E 02:29:00 15° ESE 02:31:44 10° SE visible
07 Dec 3.3 04:06:14 37° NW 04:07:31 45° W 04:12:25 10° SSW visible
08 Dec 3.2 03:28:33 41° NE 03:30:18 69° ESE 03:35:24 10° S visible
09 Dec 4.9 02:50:53 19° ENE 02:53:16 27° ESE 02:57:30 10° SSE visible
09 Dec 4.1 04:31:03 22° WNW 04:32:05 24° W 04:36:10 10° SW visible
10 Dec 5.9 02:15:41 10° ESE 02:16:24 10° ESE 02:17:09 10° ESE visible
10 Dec 2.9 03:53:22 45° NNW 03:54:45 63° W 03:59:50 10° SSW visible
11 Dec 3.8 03:15:42 33° NE 03:17:36 50° ESE 03:22:32 10° S visible
11 Dec 4.7 04:55:52 12° WNW 04:56:42 12° W 04:58:45 10° WSW visible
